Regional Weather Roundup
Issued by NWS Cleveland, OH

Home | Current Version | Previous Version | Graphics & Text | Print | Product List | Glossary On
Versions: 1 2 3 4 5 6 7 8 9 10 11 12 13 14 15 16 17 18 19 20 21 22 23 24 25 26 27 28 29 30 31 32 33 34 35 36 37 38 39 40 41 42 43 44 45 46 47 48 49 50
000
ASUS41 KCLE 160410
RWRCLE
OHIO REGIONAL WEATHER ROUNDUP
NATIONAL WEATHER SERVICE WILMINGTON, OH
1200 AM EDT WED APR 16 2014

NOTE: "FAIR" INDICATES FEW OR NO CLOUDS BELOW 12,000 FEET WITH NO
SIGNIFICANT WEATHER AND/OR OBSTRUCTIONS TO VISIBILITY.

OHZ001>008-015>018-024>027-034-035-043-044-160500-
   NORTHWEST OHIO

CITY           SKY/WX    TMP DP  RH WIND       PRES   REMARKS
DEFIANCE       CLEAR     25  16  68 CALM      30.26R
FINDLAY        CLEAR     27  14  58 NW5       30.24S WCI  22
TOLEDO EXPRESS CLEAR     27  10  49 W3        30.25R
TOLEDO METCALF CLEAR     28  13  53 W7        30.26R WCI  21
LIMA           CLEAR     29  14  53 NW3       30.25R
$$

OHZ009>014-019>023-028>033-038-089-160500-
   NORTHEAST OHIO

CITY           SKY/WX    TMP DP  RH WIND       PRES   REMARKS
CLE-HOPKINS    MOCLDY    32  16  51 NW12      30.24R WCI  23
CLE-LAKEFRONT  MOCLDY    32  20  61 N17G25    30.21R WCI  21
CUY CO. ARPT   NOT AVBL
LORAIN-ELYRIA  CLOUDY    33  18  53 N10       30.23R WCI  25
ASHTABULA      CLOUDY    27  16  63 N9        30.21R WCI  18
AKRON-CANTON   MOCLDY    26  20  77 NW7       30.19S WCI  18
WOOSTER        CLOUDY    27  20  75 W6        30.21R WCI  20
MANSFIELD      CLEAR     27  17  66 W5        30.21R WCI  22
YOUNGSTOWN     FLURRIES  26  23  88 N3        30.18R
$$

OHZ042-051>053-060>062-070>072-077>081-160500-
  SOUTHWEST OHIO

CITY           SKY/WX    TMP DP  RH WIND       PRES   REMARKS
CINC-COVINGTON CLEAR     31  18  58 N6        30.25R WCI  25
CINC-LUNKEN    CLEAR     30  20  66 CALM      30.28S
HAMILTON       CLEAR     29  21  72 N3        30.27S
DAYTON         CLEAR     28  17  63 N5        30.25F WCI  23
WRIGHT-PAT AFB CLEAR     30  15  53 VRB6      30.25S WCI  24
DAYTON GENERAL CLEAR     29  16  58 N7        30.24S WCI  22
WILMINGTON     CLEAR     28  16  60 N7        30.23F WCI  21
$$

OHZ036-037-039>041-045>050-054>059-063>069-073>076-082>088-160500-
  CENTRAL AND SOUTHEAST OHIO

CITY           SKY/WX    TMP DP  RH WIND       PRES   REMARKS
COLUMBUS       CLEAR     32  14  47 NW10      30.24S WCI  24
OSU AIRPORT    CLEAR     28  15  58 NW7       30.25R WCI  21
BOLTON FIELD   CLEAR     28  18  66 MISG      30.25R
RICKENBACK AFB CLEAR     32  13  45 NW6       30.25R WCI  26
NEWARK         CLEAR     28  18  66 NW3       30.23S
MARION         CLEAR     28  15  58 NW10      30.24R WCI  19
LANCASTER      CLEAR     29  17  61 NW5       30.24S WCI  24
ZANESVILLE     CLEAR     28  19  69 W3        30.23R
NEW PHILLY     CLEAR     28  18  66 CALM      30.22S
$$



USA.gov is the U.S. government's official web portal to all federal, state and local government web resources and services.